Погода в Глазове

Погода в Глазове : погода сейчас, прогноз погоды и архив. Всё, что Вы хотите узнать о погоде в Глазове!

Хотите узнать прогноз погоды в Глазове? Тогда Вам сюда: Погода в Глазове

Поиск расширенной информации на нашем сайте:

Другие новости

Новости СМИ2

Главная страница сайта

Новости сайта

03.07.2017

Напоминаем, что на нашем специализированном сайте Метеоцентр.Азия вы можете получить высокодетализированные автоматические прогнозы погоды по пунктам России, СНГ и мира в авиационном формате (включающие направление и скорость ветра, видимость, явления погоды, количество и форму облачности, нижнюю и верхнюю границу облачности).


Погода в Глазове - сегодня

Время (UTC), дата Ветер
(°,м/с) 
Видим.   Явления Облачность Т
(°С)
Тd
(°С)
f(%) Тe
(°С)
Pmin
(гПа)
dP
(гПа)
Po
(мм)
O2
(г/м3)
Тmin Tmax R s Состояние
почвы
03 11.06.18 310 (СЗ) 1-2{03}  20000 м    4/0 средняя 
[Ac lent]
+5.7 +3.1 83 +7  1009  0.9  741  292  +3        влажная 
15 11.06.18 260 (З) 2-3{07}  20000 м    9/9 600 м кучево-дожд. 
[Cb cap]
+10.7 +3.1 59 +11  1009.1  0.5  742  287    +13.4  0.8     
03 12.06.18 тихо () -1{02}  20000 м    10/10 600 м кучево-дожд. 
[Cb cap]
+6.7 +5.1 90 +7  1009.6  0.1  742  291  +4.2        влажная 
15 12.06.18 220 (ЮЗ) 5-8{09}  20000 м    10/10 600 м кучево-дожд. 
[Cb cap]
+16 +3.4 43 +16  1006.2  -1  740  281    +17.5  0.2     
03 13.06.18 200 (Ю) 4-8{08}  20000 м  {ливн. осадки}  10/10 600 м кучево-дожд. 
[Cb cap]
+12.1 +11 93 +15  1000.6  -1.2  735  282  +10.3      влажная 
15 13.06.18 190 (Ю) 5-8{11}  4000 м  ливневой дождь  10/10 300 м кучево-дожд. 
[Cb cap]
+13.5 +12.8 96 +19  997.7  -0.1  733  279    +17.8     
03 14.06.18 290 (З) 2-5{06}  20000 м  {ливн. осадки}  9/9 600 м кучево-дожд. 
[Cb cap]
+9.6 +7.7 88 +10  1004.2  1.8  738  286  +9.2    0.8    влажная 
15 14.06.18 310 (СЗ) 3-9{10}  20000 м    8/8 600 м кучево-дожд. 
[Cb cap]
+12.7 +4.7 58 +13  1011.1  1.6  743  285    +13.6  0.1     
03 15.06.18 280 (З) 3-4{05}  20000 м    ясно 
+6.9 +3.1 77 +6  1015.2  0.6  746  293  +4.6    0.5    влажная 
15 15.06.18 300 (СЗ) 3-6{10}  20000 м    9/9 1000 м 
[Cu hum]
+13.1 +0.5 42 +13  1014.2  745  287    +15.2       
03 16.06.18 310 (СЗ) 2-4{05}  20000 м    10/10 600 м кучево-дожд. 
[Cb cap]
+8.5 +3.1 69 +9  1015  746  291  +7.2        влажная 
15 16.06.18 360 (С) 1-4{06}  20000 м    8/6 1000 м кучево-дожд., средняя 
[Cb cap|Ac trans]
+16.6 +6.7 52 +18  1015.3  -0.2  746  282    +16.9       
03 17.06.18 270 (З) 1-3{04}  20000 м    3/0 средняя 
[Ac lent]
+10.4 +7.7 83 +12  1014.8  0.1  746  288  +7.5        влажная 
15 17.06.18 300 (СЗ) 2-5{08}  20000 м    3/0 средняя 
[Ac trans]
+20.1 +7.5 44 +20  1013.3  0.1  745  278    +21.4       
03 18.06.18 250 (З) 2-2{03}  20000 м    3/0 средняя, верхняя 
[Ac trans|Ci fib]
+12.9 +9.4 79 +14  1013.2  -0.5  745  285  +9.2        сухая 
15 18.06.18 тихо () -1{02}  20000 м    4/4 1000 м 
[Cu hum]
+24.4 +8.9 37 +24  1008.7  -0.8  742  273    +25.2       
18 18.06.18 тихо () -1{03}  20000 м    ясно 
+17.5 +9.7 60 +18  1009.2  742  279           
21 18.06.18 270 (З) 1-3{03}  4000 м    ясно 
+14.8 +9.2 69 +16  1009.1  -0.3  742  282           
03 19.06.18 270 (З) 1-3{03}  20000 м    3/0 средняя 
[Ac lent]
+15.5 +8.6 63 +17  1009.5  0.5  742  281  +11.3        сухая 
06 19.06.18 310 (СЗ) 1-3{03}  20000 м    ясно 
+22.7 +11 48 +25  1008.5  -0.5  742  274           
15 19.06.18 290 (З) 1-3{06}  20000 м    1/1 1000 м 
[Cu hum]
+24.8 +6.8 32 +25  1005.1  -1.2  739  272    +26.4       
03 20.06.18 190 (Ю) 1-2{04}  20000 м    6/3 600 м верхняя 
[Sc diur, vesp|Cc]
+18.5 +12.6 68 +25  1001.1  -1.2  736  275  +14.6        сухая 
15 20.06.18 270 (З) 5-10{13}  20000 м  {ливн. осадки}  9/9 600 м кучево-дожд. 
[Cb cap]
+14.7 +11 78 +17  995.3  1.8  732  278    +22.9     
03 21.06.18 250 (З) 6-10{10}  20000 м    10/10 600 м 
[Sc]
+10.8 +7.5 80 +9  995.4  -0.9  732  282  +8.1        влажная 
15 21.06.18 300 (СЗ) 3-6{10}  20000 м    10/10 300 м 
[St]
+11.7 +10.5 92 +13  996.6  1.2  732  281    +14     
Время (UTC), дата Ветер
(°,м/с) 
Видим.   Явления Облачность Т
(°С)
Тd
(°С)
f(%) Тe
(°С)
Pmin
(гПа)
dP
(гПа)
Po
(мм)
O2
(г/м3)
Тmin Tmax R s Состояние
почвы

Для получения пояснительной информации подведите курсор к названию столбца.

ПОГОДА в Глазове - архив

Всё, что Вы хотите узнать о погоде в Глазове - удобно и подробно!

Выберите нужную дату (начиная с 1 января 2015* года) и нажмите кнопку "Найти".
Будут отображены архивные сводки погоды по пункту Глазов, начиная с указанной даты.


Отображать данные в формате CSV (для использования в таблицах Excel)


Внимание! Наш архив погоды предназначен исключительно для личного некоммерческого использования в познавательных целях. Если Вам необходимы официальные справки о состоянии погоды (для производственных, юридических, коммерческих и т.п. целей), обращайтесь в органы Росгидромета.

*Примечание: данная дата относится к архиву по метеостанциям СССР (Россия, СНГ, Балтия).
Архив по метеостанциям Зарубежной Европы и Азии (кроме Китая) хранится 10 дней, по другим регионам земного шара (Китай, Африка, Америка, Австралия, Океания) - 1 день.

Глазов - район местоположения метеостанции


Название, широта, долгота, высота метеостанции:
Глазов 58.1°ш. 52.6°д. 169 м над ур. моря [Российская Федерация]

Дополнительная информация

В oтличие oт бoльшинства пoгoдных сайтoв мы публикуем пoдрoбную метеoинфoрмацию в детальнoм прoфессиoнальнoм фoрмате.

Характеристики температуры и влажнoсти вoздуха измеряются на высoте 2 м в тени вдали oт зданий и деревьев.
Скoрoсть ветра измеряется на высoте 10 м (на урoвне рoста челoвека скoрoсть ветра ниже в 1.5-2 раза). Если метеoстанция нахoдится в гoрoде или в лесу, тo скoрoсть ветра занижена на 2-4 м/с пo сравнению с oткрытым местoм. Скoрoсть ветра над акватoриями крупных рек и oзёр, а также на вершинах хoлмoв на 2-5 м/с выше, чем в oбычных услoвиях.
Атмoсфернoе давление в разных тoчках местнoсти мoжет значительнo oтличаться oт давления на метеoстанции, в зависимoсти oт услoвий рельефа (при пoдъёме на 10 м давление пoнижается примернo на 1 мм рт.ст.).